Aérodrome :
LOGIN :

S'inscrire | Disclaimer

   EN    FR    IT 

 










Légende :    VFR   VFR Marginal   IFR   IFR Intensif   IFR Très Intensif
Visi : 
Plafond : 
>= 8 km
>= 3000ft
5 à 8 km
1000 à 3000 ft
1500m à 5 km
500 à 1000 ft
800 à 1500m
200 à 500 ft
< 800m
< 200 ft
Symboles :   Orages  Brouillard  Fortes neiges  Fortes précipitations  Vent > 20 kt
SIGMETs :   Divers  Orages  Givrage  Turbulence  Onde Orograph.  Cendres Volcan.







- Altitude de l'aérodrome : 239 ft
- Code IATA : VRN


LIPX - Villafranca Int. Verona

DERNIER METAR :
  • 190250Z 33003KT CAVOK 01/M00 Q1021

METARs EXPIRÉS :
  • 190220Z 33003KT CAVOK 02/00 Q1021
  • 190150Z 32004KT CAVOK 02/01 Q1022
  • 190120Z 33003KT CAVOK 02/00 Q1022
  • 190050Z 30003KT CAVOK 03/00 Q1022
  • 190020Z 32003KT CAVOK 03/00 Q1022

TAF TAF LIPX
Valide du 19 à 03h jusqu'au 19 à 12h UTC


190200Z 1903/1912 VRB05KT CAVOK
TEMPO 1904/1907 2000 BCFG
Pas de NOTAMs connus pour ce terrain.



MET'MAP, la Météo Aéronautique d'un coup d'oeil ! - Copyright ORBIFLY Décembre 2007 - Disclaimer

ORBIFLY MET'MAP TEAM :

Programmation & Développement : Alexandra Zaïnal
Conception & Développement : Baudouin d'Aumeries
Co-Programmation & Développement : Marc-Olivier Méhu
Soutien technique & logistique : Manuel Goepfert

Contact : metmap@orbifly.com




SOURCES & CREDITS :

   NOAA